Location: Unspecified
(0.0000°N, 0.0000°E)
Time: 14:12:28
(UTC+00:00)

Envisat - Visible Passes

Search period start: 12 April 2021 00:00
Search period end: 22 April 2021 00:00
Orbit: 764 x 766 km, 98.1° (Epoch: 11 April)

Date Brightness Start Highest point End Pass type
(mag) Time Alt. Az. Time Alt. Az. Time Alt. Az.
12 Apr 3.1 05:25:41 10° N 05:30:39 59° WNW 05:35:40 10° SSW visible
13 Apr 4.0 04:49:05 10° NNE 04:53:56 47° ESE 04:58:48 10° S visible
14 Apr 5.7 04:14:04 10° ENE 04:17:14 17° ESE 04:20:24 10° SE visible
14 Apr 6.3 18:25:30 10° WSW 18:27:01 11° WSW 18:28:31 10° W visible
15 Apr 3.0 05:14:11 10° N 05:19:15 82° WNW 05:24:20 10° SSW visible
16 Apr 4.6 04:37:57 10° NE 04:42:31 34° ESE 04:47:06 10° SSE visible
17 Apr 6.0 04:03:58 10° E 04:05:50 12° ESE 04:07:42 10° SE visible
18 Apr 3.2 05:02:47 10° NNE 05:07:50 73° ESE 05:12:54 10° S visible
19 Apr 5.2 04:26:59 10° NE 04:31:07 25° ESE 04:35:15 10° SSE visible
20 Apr 3.2 05:28:13 10° N 05:33:08 53° WNW 05:38:05 10° SSW visible
21 Apr 3.8 04:51:29 10° NNE 04:56:25 53° ESE 05:01:21 10° S visible
